#timestamp,LO_Frequency,Hit,StdDev 
1581080415.8,286047000.2,N
1581080435.7,286047000.6,N
1581080455.5,286047000.2,N
1581080475.4,286046999.7,N
1581080495.2,286047000.5,N
1581080515.0,286047000.8,N
1581080515.9,286047000.8,N
1581080535.8,286047002.7,N
1581080555.6,286047000.6,N
1581080575.4,286047001.0,N
1581080595.3,286046999.9,N
1581080615.1,286046999.3,N
1581080635.9,286047000.2,N
1581080655.7,286047000.6,N
1581080675.5,286047000.0,N
1581080695.4,286046998.2,N
1581080715.2,286046998.9,N
1581080735.0,286046998.5,N
1581080736.0,286046998.5,N
1581080755.8,286047000.9,N
1581080775.6,286046996.7,Y
1581080795.5,286046999.4,P
1581080815.3,286046997.0,P
1581080835.1,286046998.9,N
1581080855.9,286046996.5,Y
1581080875.7,286046999.3,P
1581080895.6,286046999.6,N
1581080915.4,286046999.1,N
1581080935.2,286047001.8,Y
1581080955.1,286047001.9,P
1581080956.0,286047001.9,N
1581080975.8,286047001.5,N
1581080995.7,286047001.5,N
1581081015.5,286047000.6,N
1581081035.3,286047000.7,N
1581081055.2,286046998.1,N
1581081075.0,286047000.3,N
1581081075.9,286047000.3,N
1581081095.8,286047000.6,N
1581081115.6,286047000.0,N
1581081135.4,286047000.9,N
1581081155.3,286046999.1,N
1581081175.1,286046996.5,Y
1581081195.9,286046994.9,P
1581081215.7,286046997.1,N
1581081235.5,286046996.5,N
1581081255.4,286046998.1,N
1581081275.2,286047001.7,N
1581081295.0,286047003.6,N
1581081295.9,286047003.6,N
1581081315.8,286047004.7,N
1581081335.6,286047007.4,N
1581081355.5,286047004.5,N
1581081375.3,286047006.6,N
1581081395.1,286047008.7,N
1581081415.9,286047006.5,N
1581081435.7,286047006.8,N
1581081455.5,286047006.5,N
1581081475.4,286047007.6,N
1581081495.2,286047003.4,N
1581081515.1,286047005.6,N
1581081516.0,286047005.6,N
1581081535.8,286047003.4,N
1581081555.6,286047007.6,N
1581081575.5,286047005.2,N
1581081595.3,286047007.6,N
1581081615.1,286047006.9,N
1581081635.9,286047007.0,N
1581081655.7,286047004.6,N
1581081675.6,286047005.7,N
1581081695.4,286047004.9,N
1581081715.2,286047005.9,N
1581081735.1,286047003.4,N
1581081736.0,286047003.4,N
1581081755.8,286047003.2,N
1581081775.7,286047001.7,N
1581081795.5,286047000.0,N
1581081815.3,286046998.6,N
1581081835.2,286046998.1,N
1581081855.9,286046996.6,N
1581081875.7,286046998.6,N
1581081895.6,286046999.4,N
1581081915.4,286046998.2,N
1581081935.2,286046998.8,N
1581081955.1,286047000.5,N
1581081956.0,286047000.5,N
1581081975.8,286047000.6,N
1581081995.7,286047001.5,N
1581082015.5,286046998.1,N
1581082035.3,286047002.4,N
1581082055.2,286047002.3,N
1581082075.0,286047003.3,N
1581082075.9,286047003.3,N
1581082095.8,286047003.6,N
1581082115.6,286047003.0,N
1581082135.4,286047004.1,N
1581082155.3,286047001.4,N
1581082175.1,286047000.5,N
1581082195.8,286046998.5,N
1581082215.7,286047011.9,Y
1581082235.5,286046999.1,P
1581082255.4,286046996.9,N
1581082275.2,286046996.7,N
1581082295.0,286046997.2,N
1581082295.9,286046997.2,N
1581082315.8,286046996.9,N
1581082335.6,286046996.6,N
1581082355.4,286046996.7,N
1581082375.3,286046996.7,N
1581082395.1,286046995.6,Y
1581082415.9,286046997.0,P
1581082435.7,286046994.9,P
1581082455.5,286046997.3,N
1581082475.4,286046997.7,N
1581082495.2,286046995.4,Y
1581082515.1,286046999.3,P
1581082516.0,286046999.3,N
1581082535.8,286047001.2,N
1581082555.6,286046998.9,N
1581082575.5,286046998.2,N
1581082595.3,286047000.0,N
1581082615.1,286047001.5,N
1581082635.9,286047004.4,Y
1581082655.7,286047002.4,P
1581082675.6,286047004.3,N
1581082695.4,286047003.6,N
1581082715.2,286047003.1,N
1581082735.1,286047002.9,N
1581082736.0,286047002.9,N
1581082755.8,286047004.4,Y
1581082775.7,286047002.1,P
1581082795.5,286047004.0,P
1581082815.3,286047002.4,N
1581082835.2,286047000.5,N
1581082855.0,286047002.1,N
1581082855.9,286047002.1,N
1581082875.8,286047001.5,N
1581082895.6,286047004.1,Y
1581082915.4,286046999.7,P
1581082935.3,286047001.1,N
1581082955.1,286046998.6,N
1581082975.9,286046999.3,N
1581082995.7,286046999.2,N
1581083015.5,286046996.4,N
1581083035.4,286046991.8,Y
1581083055.2,286046990.3,P
1581083075.1,286046990.3,N
1581083076.0,286046990.3,N
1581083095.8,286046990.6,N
1581083115.6,286046991.3,N
1581083135.5,286046989.0,Y
1581083155.3,286046997.5,P
1581083175.1,286046998.0,N
1581083195.9,286046996.8,N
1581083215.7,286046997.0,N
1581083235.6,286046997.8,N
1581083255.4,286046999.3,N
1581083275.2,286046996.5,N
1581083295.1,286046997.0,N
1581083296.0,286046997.0,N
1581083315.8,286046999.5,N
1581083335.7,286046999.5,N
1581083355.5,286046997.5,N
1581083375.3,286046998.4,N
1581083395.2,286046998.5,N
1581083415.0,286046998.4,N
1581083415.9,286046998.4,N
1581083435.7,286046998.1,N
1581083455.6,286047001.0,N
1581083475.4,286046998.6,N
1581083495.3,286046998.6,N
1581083515.1,286046999.9,N
1581083516.0,286046999.9,N
1581083535.8,286046999.4,N
1581083555.7,286046998.6,N
1581083575.5,286047000.0,N
1581083595.3,286047001.1,N
1581083615.2,286047001.1,N
1581083635.0,286046999.9,N
1581083635.9,286046999.9,N
1581083655.8,286047001.1,N
1581083675.6,286047000.3,N
1581083695.4,286047000.0,N
1581083715.3,286046999.9,N
1581083735.1,286047000.4,N
1581083755.8,286047002.7,N
1581083775.7,286047000.4,N
1581083795.5,286046999.7,N
1581083815.4,286046999.9,N
1581083835.2,286047001.9,N
1581083855.0,286047002.6,N
1581083855.9,286047002.6,N
1581083875.8,286047002.8,N
1581083895.6,286047001.6,N
1581083915.4,286047001.8,N
1581083935.3,286047002.7,N
1581083955.1,286047002.8,N
1581083975.9,286047000.0,N
1581083995.7,286046999.9,N
